Home > Weather > Racine > Past weeks

Flag for USA Past Weather in Racine, Wisconsin, USA — Yesterday and Last 2 Weeks

Now
78 °F

Broken clouds.


Feels Like: 80 °F
Forecast: 71 / 80 °F
Wind: 9 mph from South

Location: Batten International Airport

Current Time: Aug 24, 2016 at 1:21:58 PM

Latest Report: Aug 24, 2016 at 12:53 PM


Visibility: 10 mi

Pressure: 29.92 "Hg

Humidity: 76%

Dew Point: 70 °F

Location of RacineLocation

Past Weather in Racine — Graph

°F

Racine Temperature Yesterday

Maximum temperature yesterday: 81 °F (at 12:53 PM)
Minimum temperature yesterday: 63 °F (at 4:53 AM)
Average temperature yesterday: 73 °F

High & Low Weather Summary for the Past Weeks

 TemperatureHumidityPressure
High93 °F (Aug 11, 12:53 PM)97% (Aug 13, 4:04 AM)30.20 "Hg (Aug 13, 4:04 AM)
Low55 °F (Aug 22, 5:53 AM)40% (Aug 14, 2:53 PM)29.57 "Hg (Aug 20, 2:53 PM)
Average75 °F73%29.96 "Hg
* Reported Aug 9 11:53 AM — Aug 24 11:53 AM, Racine, Weather by CustomWeather, © 2016

Note: Actual official high and low records may vary slightly from our data, if they occured in-between our weather recording intervals... More about our weather records

Advertising

Racine Weather History for the Previous 24 Hours

Scroll right to see more
 ConditionsComfort  
Time TempWeatherWind HumidityBarometerVisibility
11:53 AM
Wed, Aug 24
77 °FOvercast.5 mph79%29.94 "Hg10 mi
10:53 AM75 °FSunny.8 mph82%29.95 "Hg10 mi
9:53 AM72 °FLight rain. Partly sunny.7 mph91%29.94 "Hg10 mi
8:53 AM71 °FRain. Fog.8 mph90%29.99 "Hg3 mi
7:53 AM74 °FLight rain. Mostly cloudy.12 mph82%29.99 "Hg9 mi
6:53 AM71 °FOvercast.8 mph81%29.96 "Hg10 mi
5:53 AM71 °FPartly cloudy.8 mph78%29.96 "Hg10 mi
4:53 AM72 °FPassing clouds.8 mph76%29.97 "Hg10 mi
3:53 AM74 °FPassing clouds.9 mph74%29.99 "Hg10 mi
2:53 AM74 °FOvercast.14 mph69%30.01 "Hg10 mi
1:53 AM73 °FMostly cloudy.8 mph69%30.03 "Hg10 mi
12:53 AM73 °FMostly cloudy.N/A69%30.05 "Hg10 mi
11:53 PM
Tue, Aug 23
73 °FMostly cloudy.13 mph71%30.05 "Hg10 mi
10:53 PM73 °FPassing clouds.10 mph71%30.08 "Hg10 mi
9:53 PM73 °FClear.8 mph69%30.09 "Hg10 mi
8:53 PM73 °FClear.10 mph64%30.09 "Hg10 mi
7:53 PM71 °FSunny.5 mph73%30.11 "Hg10 mi
6:53 PM76 °FSunny.10 mph64%30.11 "Hg10 mi
5:53 PM77 °FSunny.12 mph60%30.12 "Hg10 mi
4:53 PM79 °FSunny.15 mph56%30.13 "Hg10 mi
3:53 PM80 °FSunny.14 mph54%30.13 "Hg10 mi
2:53 PM79 °FPassing clouds.13 mph56%30.14 "Hg10 mi
1:53 PM81 °FScattered clouds.14 mph53%30.15 "Hg10 mi
Weather by CustomWeather, © 2016

See weather overviewHow to use our weather pages